| time (UTC) | temp F | wind direction | speed MPH | gust MPH | rain 1hr in | rain 24hr in | rain mn in | humidity % | barometer mb |
| 20260905103018 | 59 | 263 | 9.0 | 15.0 | 0.00 | 0.09 | 0.01 | 72 | 996.9 |
| 20260905101513 | 59 | 284 | 9.0 | 15.0 | 0.00 | 0.09 | 0.01 | 74 | 996.8 |
| 20260905100011 | 59 | 273 | 10.0 | 14.0 | 0.00 | 0.09 | 0.01 | 76 | 996.7 |
| 20260905094509 | 59 | 271 | 5.0 | 12.0 | 0.00 | 0.09 | 0.01 | 76 | 996.6 |
| 20260905093005 | 59 | 279 | 7.0 | 13.0 | 0.00 | 0.09 | 0.01 | 74 | 996.5 |
| 20260905091501 | 59 | 300 | 7.0 | 11.0 | 0.00 | 0.09 | 0.01 | 75 | 996.4 |
| 20260905090059 | 59 | 239 | 6.0 | 10.0 | 0.01 | 0.09 | 0.01 | 80 | 996.3 |
| 20260905084557 | 58 | 265 | 5.0 | 9.0 | 0.01 | 0.09 | 0.01 | 81 | 996.2 |
| 20260905083055 | 58 | 322 | 3.0 | 8.0 | 0.01 | 0.09 | 0.01 | 78 | 996.1 |
| 20260905081554 | 58 | 273 | 6.0 | 12.0 | 0.01 | 0.09 | 0.01 | 79 | 995.9 |
| 20260905080050 | 58 | 355 | 5.0 | 11.0 | 0.00 | 0.08 | 0.00 | 81 | 995.9 |
| 20260905074547 | 57 | 304 | 8.0 | 11.0 | 0.00 | 0.08 | 0.00 | 84 | 995.7 |
| 20260905073043 | 55 | 275 | 6.0 | 10.0 | 0.00 | 0.08 | 0.00 | 87 | 995.6 |
| 20260905071540 | 55 | 290 | 6.0 | 9.0 | 0.00 | 0.08 | 0.00 | 89 | 995.5 |
| 20260905070038 | 54 | 279 | 4.0 | 6.0 | 0.00 | 0.08 | 0.00 | 90 | 995.4 |
| 20260905064533 | 53 | 275 | 3.0 | 6.0 | 0.00 | 0.08 | 0.00 | 91 | 995.3 |
| 20260905063029 | 52 | 305 | 2.0 | 5.0 | 0.00 | 0.08 | 0.00 | 92 | 995.1 |
| 20260905061525 | 52 | 276 | 4.0 | 6.0 | 0.00 | 0.08 | 0.00 | 92 | 995.1 |
| 20260905060022 | 51 | 303 | 2.0 | 3.0 | 0.00 | 0.08 | 0.00 | 92 | 994.8 |
| 20260905054520 | 51 | 303 | 0.0 | 0.0 | 0.00 | 0.08 | 0.00 | 92 | 994.6 |
| 20260905053019 | 51 | 303 | 0.0 | 3.0 | 0.00 | 0.08 | 0.00 | 92 | 994.5 |
| 20260905051518 | 50 | 303 | 1.0 | 3.0 | 0.00 | 0.08 | 0.00 | 92 | 994.5 |
| 20260905050016 | 50 | 303 | 1.0 | 3.0 | 0.00 | 0.08 | 0.00 | 92 | 994.4 |
| 20260905044518 | 50 | 303 | 0.0 | 2.0 | 0.00 | 0.08 | 0.00 | 92 | 994.3 |
| 20260905043013 | 50 | 303 | 0.0 | 3.0 | 0.00 | 0.08 | 0.00 | 91 | 994.1 |
| 20260905041513 | 50 | 319 | 2.0 | 5.0 | 0.00 | 0.08 | 0.00 | 92 | 994.0 |
| 20260905040010 | 50 | 311 | 1.0 | 2.0 | 0.00 | 0.08 | 0.00 | 91 | 993.9 |
| 20260905034515 | 50 | 311 | 2.0 | 3.0 | 0.00 | 0.08 | 0.00 | 91 | 993.8 |
| 20260905033007 | 50 | 291 | 2.0 | 3.0 | 0.00 | 0.08 | 0.00 | 91 | 993.8 |
| 20260905031506 | 49 | 291 | 1.0 | 3.0 | 0.00 | 0.08 | 0.00 | 91 | 993.8 |
| 20260905030006 | 50 | 283 | 3.0 | 4.0 | 0.00 | 0.08 | 0.00 | 92 | 993.6 |
| 20260905024503 | 50 | 316 | 4.0 | 6.0 | 0.00 | 0.08 | 0.00 | 92 | 993.6 |
| 20260905023100 | 50 | 5 | 0.0 | 2.0 | 0.00 | 0.08 | 0.00 | 92 | 993.5 |
| 20260905021559 | 50 | 5 | 1.0 | 3.0 | 0.00 | 0.08 | 0.00 | 92 | 993.4 |
| 20260905020109 | 49 | 5 | 0.0 | 1.0 | 0.00 | 0.08 | 0.00 | 92 | 993.2 |
| 20260905014603 | 50 | 5 | 2.0 | 3.0 | 0.00 | 0.08 | 0.00 | 91 | 993.2 |
| 20260905013103 | 50 | 5 | 1.0 | 3.0 | 0.00 | 0.08 | 0.00 | 91 | 993.1 |
| 20260905011627 | 50 | 5 | 0.0 | 3.0 | 0.00 | 0.08 | 0.00 | 91 | 993.2 |
| 20260905010050 | 50 | 5 | 0.0 | 3.0 | 0.00 | 0.08 | 0.00 | 90 | 993.1 |
| 20260905004550 | 50 | 5 | 1.0 | 3.0 | 0.00 | 0.08 | 0.00 | 90 | 993.0 |
| 20260905003049 | 50 | 5 | 1.0 | 3.0 | 0.00 | 0.08 | 0.00 | 91 | 993.1 |
| 20260905001556 | 50 | 5 | 1.0 | 4.0 | 0.00 | 0.08 | 0.00 | 91 | 993.1 |
| 20260905000047 | 50 | 5 | 0.0 | 3.0 | 0.00 | 0.08 | 0.00 | 91 | 993.1 |
| 20260904234546 | 50 | 5 | 0.0 | 4.0 | 0.00 | 0.08 | 0.00 | 91 | 993.2 |
| 20260904233045 | 50 | 5 | 0.0 | 3.0 | 0.00 | 0.08 | 0.00 | 91 | 993.2 |
| 20260904231544 | 50 | 5 | 0.0 | 3.0 | 0.00 | 0.08 | 0.00 | 92 | 993.1 |
| 20260904230042 | 51 | 5 | 1.0 | 4.0 | 0.00 | 0.08 | 0.00 | 91 | 993.1 |
| 20260904224540 | 51 | 24 | 0.0 | 0.0 | 0.00 | 0.08 | 0.00 | 91 | 993.2 |
| 20260904223038 | 51 | 24 | 0.0 | 3.0 | 0.01 | 0.08 | 0.00 | 91 | 993.3 |
| 20260904221536 | 51 | 24 | 0.0 | 3.0 | 0.01 | 0.08 | 0.00 | 91 | 993.4 |
| 20260904220033 | 51 | 36 | 0.0 | 4.0 | 0.01 | 0.08 | 0.00 | 91 | 993.4 |
| 20260904214533 | 52 | 57 | 0.0 | 5.0 | 0.01 | 0.08 | 0.08 | 90 | 993.5 |
| 20260904213032 | 52 | 82 | 2.0 | 6.0 | 0.00 | 0.07 | 0.07 | 91 | 993.5 |
| 20260904211531 | 52 | 43 | 2.0 | 4.0 | 0.00 | 0.07 | 0.07 | 91 | 993.4 |
| 20260904210034 | 52 | 33 | 0.0 | 1.0 | 0.01 | 0.07 | 0.07 | 91 | 993.4 |
| 20260904204531 | 52 | 132 | 0.0 | 0.0 | 0.01 | 0.07 | 0.07 | 90 | 993.5 |
| 20260904203028 | 52 | 132 | 0.0 | 1.0 | 0.02 | 0.07 | 0.07 | 90 | 993.6 |
| 20260904201527 | 53 | 132 | 0.0 | 3.0 | 0.03 | 0.07 | 0.07 | 90 | 993.6 |
| 20260904200028 | 53 | 89 | 1.0 | 4.0 | 0.05 | 0.06 | 0.06 | 90 | 993.7 |
| 20260904194525 | 53 | 126 | 1.0 | 3.0 | 0.06 | 0.06 | 0.06 | 90 | 993.7 |
| 20260904193026 | 54 | 126 | 0.0 | 2.0 | 0.05 | 0.06 | 0.06 | 89 | 993.8 |
| 20260904191523 | 54 | 126 | 1.0 | 4.0 | 0.02 | 0.03 | 0.03 | 88 | 994.0 |
| 20260904190021 | 55 | 138 | 0.0 | 4.0 | 0.02 | 0.02 | 0.02 | 87 | 993.9 |
| 20260904184524 | 55 | 132 | 0.0 | 3.0 | 0.01 | 0.01 | 0.01 | 84 | 994.0 |
| 20260904183021 | 56 | 122 | 1.0 | 4.0 | 0.01 | 0.01 | 0.01 | 80 | 994.1 |
| 20260904181540 | 57 | 98 | 0.0 | 5.0 | 0.01 | 0.01 | 0.01 | 76 | 994.1 |
| 20260904180018 | 57 | 129 | 0.0 | 4.0 | 0.00 | 0.00 | 0.00 | 70 | 994.1 |
| 20260904174517 | 58 | 138 | 0.0 | 6.0 | 0.00 | 0.00 | 0.00 | 65 | 994.2 |
| 20260904173022 | 59 | 135 | 0.0 | 3.0 | 0.00 | 0.00 | 0.00 | 64 | 994.2 |
| 20260904171516 | 59 | 105 | 0.0 | 4.0 | 0.00 | 0.00 | 0.00 | 65 | 994.3 |
| 20260904170014 | 59 | 130 | 1.0 | 5.0 | 0.00 | 0.00 | 0.00 | 68 | 994.3 |
| 20260904164514 | 59 | 148 | 2.0 | 6.0 | 0.00 | 0.00 | 0.00 | 71 | 994.3 |
| 20260904163013 | 60 | 141 | 4.0 | 7.0 | 0.00 | 0.00 | 0.00 | 71 | 994.4 |
| 20260904161513 | 60 | 179 | 5.0 | 8.0 | 0.00 | 0.00 | 0.00 | 71 | 994.4 |
| 20260904160014 | 61 | 176 | 4.0 | 6.0 | 0.00 | 0.00 | 0.00 | 67 | 994.5 |
| 20260904154509 | 61 | 142 | 2.0 | 5.0 | 0.00 | 0.00 | 0.00 | 63 | 994.6 |
| 20260904153016 | 62 | 144 | 2.0 | 7.0 | 0.00 | 0.00 | 0.00 | 58 | 994.7 |
| 20260904151508 | 62 | 167 | 6.0 | 10.0 | 0.00 | 0.00 | 0.00 | 59 | 994.7 |
| 20260904150006 | 63 | 136 | 4.0 | 8.0 | 0.00 | 0.00 | 0.00 | 60 | 994.8 |
| 20260904144506 | 63 | 129 | 2.0 | 7.0 | 0.00 | 0.00 | 0.00 | 57 | 994.9 |
| 20260904143004 | 63 | 113 | 3.0 | 8.0 | 0.00 | 0.00 | 0.00 | 57 | 995.1 |
| 20260904141504 | 63 | 168 | 5.0 | 8.0 | 0.00 | 0.00 | 0.00 | 58 | 995.2 |
| 20260904140100 | 63 | 151 | 4.0 | 8.0 | 0.00 | 0.00 | 0.00 | 57 | 995.4 |
| 20260904134605 | 62 | 173 | 0.0 | 9.0 | 0.00 | 0.00 | 0.00 | 57 | 995.5 |
| 20260904133057 | 63 | 164 | 2.0 | 7.0 | 0.00 | 0.00 | 0.00 | 58 | 995.6 |
| 20260904131556 | 63 | 163 | 1.0 | 6.0 | 0.00 | 0.00 | 0.00 | 56 | 995.7 |
| 20260904130055 | 63 | 108 | 2.0 | 5.0 | 0.00 | 0.00 | 0.00 | 58 | 995.7 |
| 20260904124554 | 63 | 160 | 4.0 | 6.0 | 0.00 | 0.00 | 0.00 | 59 | 995.9 |
| 20260904123055 | 62 | 178 | 4.0 | 9.0 | 0.00 | 0.00 | 0.00 | 61 | 996.1 |
| 20260904121550 | 62 | 155 | 5.0 | 9.0 | 0.00 | 0.00 | 0.00 | 60 | 996.2 |
| 20260904120051 | 62 | 155 | 5.0 | 9.0 | 0.00 | 0.00 | 0.00 | 60 | 996.4 |
| 20260904114546 | 62 | 144 | 5.0 | 8.0 | 0.00 | 0.00 | 0.00 | 65 | 996.4 |
| 20260904113046 | 62 | 147 | 8.0 | 10.0 | 0.00 | 0.00 | 0.00 | 60 | 996.6 |
| 20260904111546 | 63 | 167 | 5.0 | 8.0 | 0.00 | 0.00 | 0.00 | 59 | 996.8 |
| 20260904110043 | 63 | 169 | 6.0 | 9.0 | 0.00 | 0.00 | 0.00 | 56 | 996.8 |
| 20260904104550 | 63 | 148 | 3.0 | 8.0 | 0.00 | 0.00 | 0.00 | 55 | 997.0 |